Weather History for Dayton Wright, OH

Change the Weather History Date:

Sunday, August 11, 2013

  Actual Average (KFFO) Record (KFFO)
Temperature  
Mean Temperature 74 °F -  
Max Temperature 84 °F 81 °F 91 °F (2002)
Min Temperature 64 °F 60 °F 54 °F (2011)
Cooling Degree Days 9    
Growing Degree Days 24 (Base 50)    
Moisture  
Dew Point 65 °F    
Average Humidity 78    
Maximum Humidity 100    
Minimum Humidity 51    
Precipitation  
Precipitation 0.00 in - - ()
Sea Level Pressure  
Sea Level Pressure 30.07 in    
Wind  
Wind Speed 3 mph (NNW)    
Max Wind Speed 13 mph    
Max Gust Speed -    
Visibility 6 miles    
Events Fog    
Averages and records for this station are not official NWS values.
T = Trace of Precipitation, MM = Missing Value Source: NWS Daily Summary

Daily Weather History Graph

Daily Weather History Graph

Search for Another Location

Airport:

Trip Planner

Search our weather history database for the weather conditions in past years. The results will help you decide how hot, cold, wet, or windy it might be!

Date:

Astronomy

Aug. 11, 2013 Rise Set
Actual Time 6:45 AM EDT 8:37 PM EDT
Civil Twilight 6:16 AM EDT 9:06 PM EDT
Nautical Twilight 5:41 AM EDT 9:42 PM EDT
Astronomical Twilight 5:03 AM EDT 10:19 PM EDT
Moon 11:31 AM EDT (8/11) 10:54 PM EDT (8/11)
Length of Visible Light 14h 50m
Length of Day
13h 51m
Waxing Crescent, 22% of the Moon is Illuminated
Aug 11
Waxing Crescent
Aug 14
First Quarter
Aug 20
Full
Aug 28
Last Quarter
Sep 5
New

Hourly Weather History & Observations

Time (EDT) Temp. Heat Index Dew Point Humidity Pressure Visibility Wind Dir Wind Speed Gust Speed Precip Events Conditions
12:53 AM 71.1 °F - 66.9 °F 87% 30.07 in 10.0 mi South 3.5 mph - N/A   Clear
1:53 AM 71.1 °F - 66.9 °F 87% 30.07 in 9.0 mi South 3.5 mph - N/A   Partly Cloudy
2:53 AM 70.0 °F - 66.9 °F 90% 30.08 in 7.0 mi Calm Calm - N/A   Partly Cloudy
3:53 AM 68.0 °F - 66.0 °F 93% 30.07 in 5.0 mi South 3.5 mph - N/A   Clear
4:53 AM 69.1 °F - 66.0 °F 90% 30.07 in 4.0 mi Calm Calm - N/A   Clear
5:53 AM 68.0 °F - 66.0 °F 93% 30.07 in 3.0 mi Calm Calm - N/A   Clear
6:23 AM 66.2 °F - 66.2 °F 100% 30.09 in 2.0 mi Calm Calm - N/A   Clear
6:30 AM 66.2 °F - 64.4 °F 94% 30.09 in 1.8 mi Calm Calm - N/A   Clear
6:37 AM 66.2 °F - 64.4 °F 94% 30.09 in 2.5 mi Calm Calm - N/A   Clear
6:53 AM 66.0 °F - 64.9 °F 96% 30.07 in 1.0 mi Calm Calm - N/A   Clear
7:00 AM 66.2 °F - 64.4 °F 94% 30.09 in 0.8 mi Calm Calm - N/A   Clear
7:16 AM 64.4 °F - 64.4 °F 100% 30.09 in 0.5 mi NNE 3.5 mph - N/A Fog Fog
7:21 AM 64.4 °F - 64.4 °F 100% 30.09 in 1.0 mi Calm Calm - N/A   Clear
7:53 AM 68.0 °F - 66.0 °F 93% 30.08 in 1.8 mi Calm Calm - N/A   Clear
8:01 AM 69.8 °F - 66.2 °F 88% 30.10 in 2.5 mi Calm Calm - N/A   Clear
8:19 AM 69.8 °F - 66.2 °F 88% 30.10 in 3.0 mi Calm Calm - N/A   Clear
8:53 AM 73.0 °F - 68.0 °F 84% 30.09 in 4.0 mi Calm Calm - N/A   Haze
9:53 AM 75.9 °F - 68.0 °F 76% 30.09 in 7.0 mi Calm Calm - N/A   Scattered Clouds
10:53 AM 79.0 °F - 66.0 °F 64% 30.09 in 10.0 mi Calm Calm - N/A   Clear
11:53 AM 80.1 °F 81.9 °F 64.9 °F 60% 30.08 in 10.0 mi West 3.5 mph - N/A   Partly Cloudy
12:53 PM 82.0 °F 83.4 °F 64.0 °F 54% 30.07 in 10.0 mi Variable 5.8 mph - N/A   Scattered Clouds
1:53 PM 82.9 °F 85.0 °F 66.0 °F 56% 30.06 in 10.0 mi Variable 6.9 mph - N/A   Clear
2:53 PM 82.9 °F 85.4 °F 66.9 °F 58% 30.05 in 10.0 mi WNW 10.4 mph - N/A   Scattered Clouds
3:53 PM 82.9 °F 85.4 °F 66.9 °F 58% 30.05 in 10.0 mi NW 8.1 mph - N/A   Partly Cloudy
4:53 PM 84.0 °F 86.5 °F 66.9 °F 56% 30.03 in 10.0 mi NW 12.7 mph - N/A   Scattered Clouds
5:53 PM 82.9 °F 84.6 °F 64.9 °F 54% 30.04 in 10.0 mi NW 9.2 mph - N/A   Clear
6:53 PM 82.9 °F 84.0 °F 63.0 °F 51% 30.03 in 10.0 mi WNW 6.9 mph - N/A   Clear
7:53 PM 80.1 °F 81.7 °F 64.0 °F 58% 30.04 in 10.0 mi NNW 9.2 mph - N/A   Clear
8:53 PM 75.9 °F - 64.0 °F 67% 30.05 in 10.0 mi North 6.9 mph - N/A   Clear
9:53 PM 73.0 °F - 63.0 °F 71% 30.07 in 10.0 mi NNE 4.6 mph - N/A   Clear
10:53 PM 72.0 °F - 63.0 °F 73% 30.08 in 10.0 mi ENE 3.5 mph - N/A   Clear
11:53 PM 70.0 °F - 64.0 °F 81% 30.07 in 10.0 mi NE 3.5 mph - N/A   Clear